Regional Weather Roundup
Issued by NWS

Home | Current Version | Previous Version | Graphics & Text | Print | Product List | Glossary On
Versions: 1 2 3 4 5 6 7 8 9 10 11 12 13 14 15 16 17 18 19 20 21 22 23 24 25 26 27 28 29 30 31 32 33 34 35 36 37 38 39 40 41 42 43 44 45 46 47 48 49 50
000
ASUS43 KLSX 191807
RWRMO

WEATHER SUMMARY FOR MISSOURI
NATIONAL WEATHER SERVICE SPRINGFIELD MO
100 PM CDT SAT AUG 19 2017

NOTE: "FAIR" INDICATES FEW OR NO CLOUDS BELOW 12,000 FEET WITH NO
       SIGNIFICANT WEATHER AND/OR OBSTRUCTIONS TO VISIBILITY.
       CURRENT SKY AND/OR WEATHER CONDITIONS ARE NOT AVAILABLE FOR
       CHILLICOTHE AND FARMINGTON.

MOZ001>031-035>038-043-044-053-054-191900-
...NORTHERN AND WESTERN MISSOURI...

CITY           SKY/WX    TMP DP  RH WIND       PRES   REMARKS
KANSAS CTY INT MOSUNNY   87  71  58 VRB3      29.98F HX  93
6HR MIN TEMP:  66; 6HR MAX TEMP:  87;

KANSAS C DTWN  SUNNY     88  67  49 CALM      29.96F HX  91
6HR MIN TEMP:  70; 6HR MAX TEMP:  90;

LEE`S SUMMIT   SUNNY     87  70  56 VRB3      29.98F HX  92
6HR MIN TEMP:  68; 6HR MAX TEMP:  88;

ST JOSEPH      SUNNY     85  69  58 S5        29.97F
6HR MIN TEMP:  62; 6HR MAX TEMP:  87;

CHILLICOTHE      N/A     88  65  46 MISG      29.96F HX  90
6HR MIN TEMP:  61; 6HR MAX TEMP:  89;

KIRKSVILLE     SUNNY     89  55  31 W8        29.96F
6HR MIN TEMP:  61; 6HR MAX TEMP:  90;


$$
MOZ066>068-077>081-088>096-101>105-191900-
...SOUTHWEST MISSOURI...

CITY           SKY/WX    TMP DP  RH WIND       PRES   REMARKS
SPRINGFIELD    SUNNY     88  76  67 W8        30.00F HX  99
6HR MIN TEMP:  69; 6HR MAX TEMP:  89;

JOPLIN         SUNNY     91  78  65 SW12      29.99F HX 106
6HR MIN TEMP:  75; 6HR MAX TEMP:  91; 6HR PCP:  0.02;

BRANSON        MOSUNNY   86  75  70 NW6       30.03F HX  95

$$
MOZ032>034-039>042-045>050-055>058-069>072-191900-
...CENTRAL MISSOURI...

CITY           SKY/WX    TMP DP  RH WIND       PRES   REMARKS
COLUMBIA       SUNNY     87  71  58 CALM      29.97F HX  93
6HR MIN TEMP:  68; 6HR MAX TEMP:  87;

JEFFERSON CITY SUNNY     88  71  57 CALM      29.96S HX  94
6HR MIN TEMP:  68; 6HR MAX TEMP:  88;

ROLLA          MOSUNNY   86  73  65 VRB5      30.00F HX  93
6HR MIN TEMP:  67; 6HR MAX TEMP:  86;

SEDALIA        SUNNY     88  73  61 CALM      29.99S HX  95
6HR MIN TEMP:  70; 6HR MAX TEMP:  89;

WHITEMAN AFB   SUNNY     86  74  67 NE3       29.97S HX  93
WARRENSBURG    SUNNY     84  68  58 CALM      29.97F
OSAGE BEACH    SUNNY     86  72  62 SW7       29.99S HX  92

$$
MOZ051-052-059>065-191900-
...EAST CENTRAL MISSOURI...

CITY           SKY/WX    TMP DP  RH WIND       PRES   REMARKS
ST LOUIS INTL  MOSUNNY   88  69  53 W8        29.96F HX  92
6HR MIN TEMP:  71; 6HR MAX TEMP:  88;

SPIRIT OF STL  MOSUNNY   87  71  58 VRB6      29.95F HX  93
6HR MIN TEMP:  68; 6HR MAX TEMP:  87;

ST CHARLES     SUNNY     86  69  56 VRB3      29.94F HX  90
6HR MIN TEMP:  68; 6HR MAX TEMP:  86;


$$
MOZ072>076-082>087-097>100-106>115-191900-
...SOUTH CENTRAL AND SOUTHEAST MISSOURI...

CITY           SKY/WX    TMP DP  RH WIND       PRES   REMARKS
CAPE GIRARDEAU SUNNY     89  71  55 CALM      29.95F HX  95
6HR MIN TEMP:  68; 6HR MAX TEMP:  89;

FARMINGTON     PTSUNNY   86  72  62 NW3       29.99F HX  92
6HR MIN TEMP:  67; 6HR MAX TEMP:  87;

POPLAR BLUFF   PTSUNNY   89  73  59 CALM      29.95F HX  97
6HR MIN TEMP:  68; 6HR MAX TEMP:  91;

WEST PLAINS    MOSUNNY   89  70  53 CALM      30.01F HX  94
6HR MIN TEMP:  68; 6HR MAX TEMP:  90;


$$



USA.gov is the U.S. government's official web portal to all federal, state and local government web resources and services.